SIA212R YSSY-WSSS

Flight info

Callsign SIA212R
Flight time N/A
Altitude 34000
Route RIC H226 ENPAG T74 NONET/N0492F360 T74 TN A464 KIKEM/N0488F380 M774 OBDOS T22 UGEBO UGEBO1B
Aircraft B77W/H-SDE1E2E3FGHIJ4J5M1P2RWXYZ/LB1D1

Departure

Time 2026-05-04 11:44
Airport Sydney Kingsford Smith International Airport (YSSY)

Arrival

Time N/A
Airport Singapore Changi Airport (WSSS)
Time Latitude Longitude Altitude Speed Heading
2026-05-04 10:45 -33.94029 151.16540 34 ft 0 kts 345°
2026-05-04 11:31 -33.94121 151.16548 34 ft 2 kts 38°
2026-05-04 11:33 -33.94144 151.16493 34 ft 0 kts 77°
2026-05-04 11:35 -33.94143 151.16496 34 ft 2 kts 76°
2026-05-04 11:35 -33.94134 151.16534 34 ft 7 kts 74°
2026-05-04 11:35 -33.94118 151.16602 34 ft 8 kts 73°
2026-05-04 11:35 -33.94103 151.16664 34 ft 8 kts 74°
2026-05-04 11:36 -33.94085 151.16740 34 ft 11 kts 75°
2026-05-04 11:36 -33.94065 151.16827 34 ft 10 kts 74°
2026-05-04 11:36 -33.94045 151.16913 34 ft 10 kts 74°
2026-05-04 11:36 -33.94024 151.17001 34 ft 11 kts 74°
2026-05-04 11:37 -33.94002 151.17091 34 ft 11 kts 73°
2026-05-04 11:37 -33.93984 151.17163 34 ft 6 kts 73°
2026-05-04 11:37 -33.93987 151.17213 34 ft 5 kts 128°
2026-05-04 11:37 -33.94047 151.17244 34 ft 12 kts 168°
2026-05-04 11:38 -33.94128 151.17265 34 ft 11 kts 168°
2026-05-04 11:38 -33.94202 151.17285 34 ft 10 kts 167°
2026-05-04 11:38 -33.94307 151.17313 34 ft 19 kts 167°
2026-05-04 11:38 -33.94471 151.17357 34 ft 24 kts 169°
2026-05-04 11:39 -33.94627 151.17395 34 ft 21 kts 168°
2026-05-04 11:39 -33.94765 151.17430 34 ft 19 kts 168°
2026-05-04 11:40 -33.95508 151.17624 34 ft 17 kts 168°
2026-05-04 11:41 -33.95623 151.17654 34 ft 16 kts 168°
2026-05-04 11:41 -33.95734 151.17682 34 ft 16 kts 168°
2026-05-04 11:41 -33.95851 151.17712 34 ft 19 kts 168°
2026-05-04 11:41 -33.96016 151.17757 34 ft 24 kts 167°
2026-05-04 11:42 -33.96176 151.17799 34 ft 22 kts 167°
2026-05-04 11:42 -33.96320 151.17839 34 ft 19 kts 168°
2026-05-04 11:42 -33.96408 151.17868 34 ft 10 kts 143°
2026-05-04 11:42 -33.96430 151.17953 34 ft 11 kts 83°
2026-05-04 11:43 -33.96410 151.18031 34 ft 8 kts 41°
2026-05-04 11:43 -33.96357 151.18045 34 ft 7 kts 355°
2026-05-04 11:43 -33.96308 151.18034 34 ft 6 kts 348°
2026-05-04 11:43 -33.96234 151.18016 34 ft 26 kts 348°
2026-05-04 11:44 -33.95833 151.17912 34 ft 88 kts 348°
2026-05-04 11:44 -33.95050 151.17709 35 ft 140 kts 348°
2026-05-04 11:44 -33.93928 151.17415 123 ft 176 kts 348°
2026-05-04 11:44 -33.92721 151.17085 637 ft 178 kts 348°
2026-05-04 11:45 -33.91476 151.16763 1260 ft 183 kts 348°
2026-05-04 11:45 -33.90213 151.16431 1624 ft 192 kts 342°
2026-05-04 11:45 -33.88981 151.15633 1793 ft 212 kts 320°
2026-05-04 11:45 -33.87883 151.14273 2059 ft 231 kts 314°
2026-05-04 11:46 -33.86752 151.12796 2461 ft 243 kts 314°
2026-05-04 11:46 -33.85612 151.11305 3168 ft 242 kts 314°
2026-05-04 11:46 -33.84469 151.09808 3839 ft 243 kts 314°
2026-05-04 11:46 -33.83317 151.08302 4457 ft 245 kts 313°
2026-05-04 11:47 -33.82142 151.06766 5094 ft 246 kts 313°
2026-05-04 11:47 -33.80980 151.05249 5762 ft 245 kts 313°
2026-05-04 11:47 -33.79814 151.03728 6354 ft 247 kts 313°
2026-05-04 11:47 -33.78652 151.02211 6939 ft 249 kts 313°
2026-05-04 11:48 -33.77579 151.00813 7456 ft 251 kts 313°
2026-05-04 11:48 -33.76649 150.99600 7886 ft 252 kts 313°
2026-05-04 11:48 -33.75469 150.98064 8389 ft 255 kts 313°
2026-05-04 11:48 -33.74247 150.96474 8923 ft 257 kts 314°
2026-05-04 11:49 -33.73033 150.94896 9434 ft 260 kts 314°
2026-05-04 11:49 -33.71815 150.93312 9950 ft 261 kts 314°
2026-05-04 11:49 -33.70562 150.91685 10315 ft 270 kts 314°
2026-05-04 11:49 -33.69260 150.89998 10485 ft 285 kts 314°
2026-05-04 11:50 -33.67873 150.88202 10639 ft 301 kts 314°
2026-05-04 11:50 -33.66412 150.86311 10813 ft 317 kts 313°
2026-05-04 11:50 -33.64876 150.84325 10994 ft 332 kts 313°
2026-05-04 11:50 -33.63248 150.82220 11215 ft 346 kts 313°
2026-05-04 11:51 -33.61613 150.80110 11709 ft 351 kts 313°
2026-05-04 11:51 -33.59972 150.77949 12365 ft 353 kts 310°
2026-05-04 11:51 -33.58545 150.75543 13084 ft 355 kts 304°
2026-05-04 11:51 -33.57191 150.73055 13767 ft 357 kts 304°
2026-05-04 11:52 -33.55838 150.70560 14451 ft 361 kts 304°
2026-05-04 11:52 -33.54474 150.68053 15185 ft 364 kts 304°
2026-05-04 11:52 -33.53098 150.65527 15941 ft 366 kts 304°
2026-05-04 11:52 -33.51693 150.62952 16639 ft 369 kts 304°
2026-05-04 11:53 -33.50281 150.60367 17263 ft 374 kts 304°
2026-05-04 11:53 -33.48852 150.57752 17921 ft 378 kts 305°
2026-05-04 11:53 -33.47419 150.55130 18617 ft 380 kts 304°
2026-05-04 11:53 -33.45977 150.52496 19338 ft 382 kts 304°
2026-05-04 11:55 -33.35543 150.33491 23634 ft 402 kts 305°
2026-05-04 11:55 -33.34013 150.30714 24236 ft 403 kts 304°
2026-05-04 11:56 -33.32455 150.27885 24767 ft 406 kts 304°
2026-05-04 11:56 -33.30897 150.25063 25250 ft 410 kts 304°
2026-05-04 11:56 -33.29331 150.22224 25787 ft 412 kts 304°
2026-05-04 11:56 -33.27750 150.19363 26302 ft 414 kts 304°
2026-05-04 11:57 -33.26165 150.16495 26800 ft 417 kts 304°
2026-05-04 11:57 -33.24579 150.13628 27316 ft 418 kts 304°
2026-05-04 11:57 -33.22960 150.10704 27782 ft 421 kts 304°
2026-05-04 11:57 -33.21350 150.07797 28189 ft 425 kts 304°
2026-05-04 11:58 -33.19724 150.04866 28624 ft 427 kts 304°
2026-05-04 11:58 -33.18070 150.01886 29085 ft 429 kts 304°
2026-05-04 11:58 -33.16414 149.98903 29549 ft 431 kts 304°
2026-05-04 11:58 -33.14774 149.95953 30132 ft 429 kts 304°
2026-05-04 11:59 -33.13139 149.93015 30786 ft 425 kts 303°
2026-05-04 11:59 -33.11533 149.90129 31474 ft 419 kts 303°
2026-05-04 11:59 -33.09914 149.87224 32089 ft 415 kts 303°
2026-05-04 11:59 -33.08340 149.84401 32605 ft 412 kts 303°
2026-05-04 12:00 -33.06754 149.81561 33109 ft 409 kts 302°
2026-05-04 12:00 -33.05195 149.78770 33567 ft 407 kts 302°
2026-05-04 12:00 -33.03638 149.75983 33984 ft 405 kts 302°
2026-05-04 12:00 -33.02058 149.73158 34096 ft 407 kts 302°
2026-05-04 12:01 -33.00501 149.70378 34103 ft 405 kts 302°
2026-05-04 12:02 -32.89549 149.50871 34107 ft 402 kts 302°
2026-05-04 12:03 -32.86455 149.45380 34109 ft 399 kts 302°
2026-05-04 12:03 -32.83338 149.39856 34105 ft 401 kts 302°
2026-05-04 12:04 -32.80248 149.34386 34110 ft 400 kts 302°
2026-05-04 12:04 -32.77115 149.28848 34125 ft 399 kts 302°
2026-05-04 12:05 -32.74010 149.23367 34121 ft 399 kts 302°
2026-05-04 12:05 -32.70926 149.17934 34124 ft 397 kts 302°
2026-05-04 12:06 -32.67831 149.12488 34118 ft 398 kts 302°